This is the latest recevied weather packets stored in our database for station/object KD2SIG. If no packets are shown the sender has not sent any weather packets the latest 10 day(s).
| Time | Temp. | Humidity | Pressure | Rain* | Wind** | Luminosity | Snow |
|---|---|---|---|---|---|---|---|
| 1777853249 | 9.44° C | 55% | 1009.8 hPa | 0 mm | - | 0 W/m² | - |
| 1777852946 | 9.44° C | 54% | 1009.7 hPa | 0 mm | - | 2 W/m² | - |
| 1777852644 | 10° C | 52% | 1009.7 hPa | 0 mm | - | 4 W/m² | - |
| 1777852341 | 10° C | 50% | 1009.7 hPa | 0 mm | - | 6 W/m² | - |
| 1777852039 | 10° C | 48% | 1009.6 hPa | 0 mm | - | 8 W/m² | - |
| 1777851737 | 10° C | 48% | 1009.7 hPa | 0 mm | - | 10 W/m² | - |
| 1777851433 | 10° C | 46% | 1009.6 hPa | 0 mm | - | 12 W/m² | - |
| 1777851129 | 10° C | 46% | 1009.7 hPa | 0 mm | - | 15 W/m² | - |
| 1777850826 | 10° C | 45% | 1009.9 hPa | 0 mm | - | 17 W/m² | - |
| 1777850523 | 10° C | 45% | 1009.9 hPa | 0 mm | - | 18 W/m² | - |
| 1777850222 | 10° C | 44% | 1009.8 hPa | 0 mm | - | 19 W/m² | - |
| 1777849917 | 10° C | 42% | 1009.7 hPa | 0 mm | - | 20 W/m² | - |
| 1777849614 | 10° C | 45% | 1009.8 hPa | 0 mm | - | 23 W/m² | - |
| 1777849311 | 10° C | 44% | 1009.8 hPa | 0 mm | - | 24 W/m² | - |
| 1777849009 | 10.56° C | 45% | 1009.7 hPa | 0 mm | - | 29 W/m² | - |
| 1777848708 | 10.56° C | 42% | 1009.7 hPa | 0 mm | - | 29 W/m² | - |
| 1777848406 | 10.56° C | 40% | 1009.8 hPa | 0 mm | - | 31 W/m² | - |
| 1777848104 | 10.56° C | 39% | 1009.6 hPa | 0 mm | - | 34 W/m² | - |
| 1777847802 | 10.56° C | 39% | 1009.8 hPa | 0 mm | - | 51 W/m² | - |
| 1777847498 | 10.56° C | 37% | 1009.8 hPa | 0 mm | - | 64 W/m² | - |
| 1777847195 | 10.56° C | 38% | 1009.9 hPa | 0 mm | - | 89 W/m² | - |
| 1777846893 | 11.11° C | 40% | 1009.8 hPa | 0 mm | - | 115 W/m² | - |
| 1777846591 | 11.11° C | 40% | 1009.9 hPa | 0 mm | - | 109 W/m² | - |
| 1777846288 | 11.11° C | 39% | 1009.9 hPa | 0 mm | - | 125 W/m² | - |
| 1777845984 | 10.56° C | 39% | 1009.9 hPa | 0 mm | - | 144 W/m² | - |
* Rain latest hour (hover to see other rain measurements)
** Current wind speed in m/s (hover to see current wind gust speed)